SCP
0 0 0 0 0 0 0 0 0 0 0 0 0 0 0 0 0 0 0 0 0 0 0 0 0 0 0 0 0 0 0 0 0 0 0 0 0 0
0 0 0 0 0 0 0 0 0 0 0 0 0 0 0 0 0 0 0 0 0 0 0 0 0 0 0 0 0 0 0 0 0 0 0 0 0 0
0 0 0 0 0 0 0 0 0 0 0 0 0 0 0 0 0 0 0 0 0 0 0 0 0 0 0 0 0 0 0 0 0 0 0 0 0 0
0 0 0 0 0 0 0 0 0 0 0 0 0 0 0 0 0 0 0 0 0 0 0 0 0 0 0 0 0 0 0 0 0 0 0 0 0 0
0 0 0 0 0 0 0 0 0 0 0 0 0 0 0 0 0 0 0 0 0 0 0 0 0 0 0 0 0 0 0 0 0 0 0 0 0 0
0 0 0 0 0 0 0 0 0 0 0 0 0 0 0 0 0 0 0 0 0 0 0 0 0 0 0 0 0 0 0 0 0 0 0 0 0 0
0 0 0 0 0 0 0 0 0 0 0 0 0 0 0 0 0 0 0 0 0 0 0 0 0 0 0 0 0 0 0 0 0 0 0 0 0 0
0 0 0 0 0 0 0 0 0 0 0 0 0 0 0 0 0 0 0 0 0 0 0 0 0 0 0 0 0 0 0 0 0 0 0 0 0 0
0 0 0 0 0 0 0 0 0 0 0 0 0 0 0 0 0 0 0 0 0 0 0 0 0 0 0 0 0 0 0 0 0 0 0 0 0 0
0 0 0 0 0 0 0 0 0 0 0 0 0 0 0 0 0 0 0 0 0 0 0 0 0 0 0 0 0 0 0 0 0 0 0 0 0 0
0 0 0 0 0 0 0 0 0 0 0 0 0 0 0 0 0 0 0 0 0 0 0 0 0 0 0 0 0 0 0 0 0 0 0 0 0 0
0 0 0 0 0 0 0 0 0 0 0 0 0 0 0 0 0 0 0 0 0 0 0 0 0 0 0 0 0 0 0 0 0 0 0 0 0 0
0 0 0 0 0 0 0 0 0 0 0 0 0 0 0 0 0 0 0 0 0 0 0 0 0 0 0 0 0 0 0 0 0 0 0 0 0 0
0 0 0 0 0 0 0 0 0 0 0 0 0 0 0 0 0 0 0 0 0 0 0 0 0 0 0 0 0 0 0 0 0 0 0 0 0 0
0 0 0 0 0 0 0 0 0 0 0 0 0 0 0 0 0 0 0 0 0 0 0 0 0 0 0 0 0 0 0 0 0 0 0 0 0 0
0 0 0 0 0 0 0 0 0 0 0 0 0 0 0 0 0 0 0 0 0 0 0 0 0 0 0 0 0 0 0 0 0 0 0 0 0 0
0 0 0 0 0 0 0 0 0 0 0 0 0 0 0 0 0 0 0 0 0 0 0 0 0 0 0 0 0 0 0 0 0 0 0 0 0 0
0 0 0 0 0 0 0 0 0 0 0 0 0 0 0 0 0 0 0 0 0 0 0 0 0 0 0 0 0 0 0 0 0 0 0 0 0 0
0 0 0 0 0 0 0 0 0 0 0 0 0 0 0 0 0 0 0 0 0 0 0 0 0 0 0 0 0 0 0 0 0 0 0 0 0 0
0 0 0 0 0 0 0 0 0 0 0 0 0 0 0 0 0 0 0 0 0 0 0 0 0 0 0 0 0 0 0 0 0 0 0 0 0 0
0 0 0 0 0 0 0 0 0 0 0 0 0 0 0 0 0 0 0 0 0 0 0 0 0 0 0 0 0 0 0 0 0 0 0 0 0 0
0 0 0 0 0 0 0 0 0 0 0 0 0 0 0 0 0 0 0 0 0 0 0 0 0 0 0 0 0 0 0 0 0 0 0 0 0 0
0 0 0 0 0 0 0 0 0 0 0 0 0 0 0 0 0 0 0 0 0 0 0 0 0 0 0 0 0 0 0 0 0 0 0 0 0 0
Wind_Speed_500mb
70 80 76 69 73 66 69 47 41 26 32 33 29 29 25 23 21 23 26 30 31 27 28 31 32 35 36 34 34 33 31 33 35 37 40 41 38 40
60 77 76 56 44 42 33 30 21 26 20 26 25 23 22 22 27 26 24 24 27 30 31 33 34 34 34 34 34 34 34 34 36 39 43 44 40 46
48 29 27 21 15 13 12 13 15 21 23 24 27 23 24 23 21 20 22 24 28 31 32 33 35 35 35 36 36 35 36 37 40 43 46 45 49 55
22 20 16 6 3 4 3 3 13 18 20 20 21 22 19 18 20 21 21 26 29 32 33 36 36 37 36 36 38 38 39 41 44 46 45 49 59 61
18 15 8 11 10 6 7 5 8 13 15 16 16 18 17 16 16 21 24 27 30 33 35 37 37 38 37 39 40 40 42 44 47 46 48 57 62 65
9 12 18 15 11 11 12 12 15 14 13 11 9 10 10 13 17 20 24 28 33 36 37 36 35 37 39 41 42 44 45 48 47 44 56 60 63 69
8 16 17 15 11 11 13 13 12 9 6 5 7 9 12 15 18 21 27 32 35 36 32 34 35 40 40 42 44 44 48 50 44 49 59 62 70 71
15 17 15 12 11 9 7 6 5 4 4 4 7 10 13 17 21 25 31 35 35 37 38 35 39 38 38 42 42 46 50 45 40 56 59 68 72 72
16 14 13 13 10 8 5 3 3 1 3 6 10 13 16 20 27 30 33 36 38 41 46 41 36 40 40 41 46 51 44 32 55 56 61 70 74 72
14 13 11 8 6 4 2 1 3 5 8 11 15 19 22 25 29 32 35 39 40 41 43 51 44 38 41 48 49 43 26 52 54 55 66 72 73 71
10 8 6 4 0 3 4 6 10 11 14 17 21 25 28 30 32 34 37 41 46 46 46 47 42 55 51 44 40 28 50 52 54 61 66 70 68 77
5 3 3 4 5 8 10 13 15 19 21 24 27 31 32 36 38 40 41 41 45 48 37 43 51 52 42 32 33 58 54 58 61 61 64 64 70 75
5 5 7 8 11 13 16 19 22 26 28 30 31 34 36 38 40 41 42 42 44 47 51 49 57 56 50 63 68 62 59 66 67 63 60 65 67 68
10 11 14 15 17 20 23 27 30 32 32 34 36 37 39 41 44 45 46 45 45 47 46 51 59 54 57 64 70 71 72 72 73 64 66 71 68 65
17 18 21 23 25 28 31 34 36 37 37 38 39 41 44 47 48 49 47 49 50 48 46 46 50 51 58 65 76 79 77 78 61 69 69 72 77 73
23 25 27 29 30 34 36 36 38 38 42 45 44 46 49 52 53 54 53 54 57 51 47 43 48 52 60 63 70 79 72 70 70 67 73 73 74 71
31 34 36 37 39 41 41 38 40 45 48 48 49 52 56 58 59 57 56 56 58 56 53 50 50 57 61 66 73 69 58 60 64 69 75 81 74 75
37 38 38 37 37 40 42 46 46 45 47 50 53 56 59 60 61 57 57 59 60 55 56 54 55 59 62 67 58 50 58 61 67 73 75 79 86 74
43 40 38 39 41 42 45 47 47 47 50 53 56 56 58 61 62 61 57 58 59 56 54 52 52 52 55 64 65 60 60 70 74 74 74 77 85 82
44 41 40 41 42 45 47 50 51 52 53 56 57 57 57 59 59 55 51 52 54 55 54 51 51 47 49 54 68 71 67 69 68 77 81 81 79 78
40 39 41 43 45 48 50 52 54 54 53 54 54 53 52 52 53 49 49 50 50 52 55 52 50 53 57 62 67 71 65 61 63 71 78 79 80 82
37 38 40 43 46 48 50 51 52 50 51 51 50 49 48 48 49 49 48 50 50 51 53 55 55 57 57 59 65 69 73 68 59 59 59 55 58 56
37 39 40 42 44 46 47 48 48 46 45 46 46 45 45 46 45 47 48 50 50 51 51 54 53 54 54 57 62 67 69 69 72 67 55 55 53 57
Wind_Direction_500mb
224 232 238 244 256 245 249 234 226 216 228 231 233 240 244 244 249 264 266 268 277 280 282 290 294 296 295 295 296 298 298 302 308 312 312 311 310 314
234 232 237 242 230 231 219 214 221 239 240 232 233 234 231 251 260 257 264 272 276 280 288 290 292 291 293 295 296 293 294 301 307 310 308 306 308 313
220 207 219 219 179 211 207 232 235 238 245 244 231 234 246 251 249 258 264 272 282 288 292 293 293 294 293 291 292 293 294 303 307 308 309 305 312 317
168 150 136 154 154 198 159 245 270 256 247 246 245 235 233 238 247 261 275 283 287 292 296 297 294 290 290 291 291 289 295 303 310 308 301 312 311 313
133 128 172 187 205 240 245 208 233 246 240 237 227 217 224 241 264 277 283 288 293 298 299 297 293 289 289 289 287 290 297 304 305 306 308 312 313 315
154 167 178 162 168 196 210 195 190 193 196 202 221 222 247 259 272 281 293 301 305 304 299 294 290 286 288 288 289 292 299 306 303 301 312 312 313 315
159 131 131 140 155 162 162 169 167 159 168 195 233 246 261 279 291 306 305 304 304 304 302 297 293 291 289 288 291 292 300 304 298 307 313 313 314 317
138 143 155 155 163 161 149 146 148 164 200 232 261 282 297 307 308 308 310 313 318 311 303 298 297 294 289 290 290 294 300 297 297 312 313 314 315 318
142 146 148 158 161 160 166 182 195 240 290 308 301 305 308 311 314 315 317 312 310 310 306 305 300 295 291 291 295 298 298 291 314 315 315 315 317 319
144 151 156 156 158 165 182 259 308 305 307 309 311 313 314 317 318 316 315 313 313 311 308 304 309 299 294 298 299 297 285 311 313 316 317 317 319 318
148 157 158 173 327 341 319 316 308 307 308 311 314 316 319 316 318 316 315 317 315 314 311 301 306 307 304 304 299 287 308 309 314 318 319 319 319 319
165 203 244 285 296 305 307 305 305 309 313 315 316 318 321 320 319 320 319 315 311 315 311 303 307 312 316 315 302 305 308 314 317 320 319 318 322 321
250 268 274 277 287 296 299 302 306 306 311 314 316 319 319 317 317 317 313 311 305 301 301 302 303 306 303 303 306 312 316 318 318 319 319 319 323 324
280 279 280 281 287 291 295 297 300 304 308 314 316 317 316 316 315 314 313 310 306 304 299 298 296 302 300 299 301 311 319 319 320 321 324 321 324 325
291 292 292 291 291 292 293 295 300 306 309 311 311 313 314 315 314 313 312 309 308 306 300 294 294 299 295 296 301 309 316 318 318 320 321 323 326 329
286 285 284 282 284 285 290 296 302 305 306 305 308 311 312 310 312 310 312 310 307 308 305 303 302 299 297 299 300 305 314 306 315 319 320 324 325 330
297 292 289 288 287 287 291 297 298 300 299 302 306 309 309 311 309 308 308 306 303 307 306 306 304 301 301 301 300 307 311 314 316 319 320 321 327 330
303 297 293 293 289 286 287 287 293 294 297 300 302 303 304 304 304 305 307 304 304 307 307 308 307 306 306 305 309 309 315 315 320 322 321 319 323 332
304 301 295 292 293 293 293 293 294 293 295 297 297 301 304 304 306 308 307 304 304 307 307 307 308 308 306 306 310 310 315 320 320 319 321 322 320 327
299 295 295 295 294 292 293 295 297 300 302 304 304 305 305 302 302 301 303 302 303 303 304 308 308 306 304 303 305 313 318 319 322 321 320 320 321 324
290 293 296 298 298 298 299 301 302 303 301 300 300 299 296 296 297 300 303 301 301 303 305 309 306 307 305 305 305 313 316 319 320 319 321 322 325 325
298 298 296 296 295 296 296 295 296 299 301 300 299 300 301 301 302 303 303 302 304 305 307 308 309 310 310 309 310 312 315 320 318 317 319 325 323 308
301 302 303 303 303 303 303 304 304 303 300 299 300 302 302 303 304 304 305 305 306 307 309 308 308 310 310 310 312 314 318 322 323 324 326 330 327 324
Wind_Speed_850mb
70 80 76 69 73 66 69 47 41 26 32 33 29 29 25 23 21 23 26 30 31 27 28 31 32 35 36 34 34 33 31 33 35 37 40 41 38 40
60 77 76 56 44 42 33 30 21 26 20 26 25 23 22 22 27 26 24 24 27 30 31 33 34 34 34 34 34 34 34 34 36 39 43 44 40 46
48 29 27 21 15 13 12 13 15 21 23 24 27 23 24 23 21 20 22 24 28 31 32 33 35 35 35 36 36 35 36 37 40 43 46 45 49 55
22 20 16 6 3 4 3 3 13 18 20 20 21 22 19 18 20 21 21 26 29 32 33 36 36 37 36 36 38 38 39 41 44 46 45 49 59 61
18 15 8 11 10 6 7 5 8 13 15 16 16 18 17 16 16 21 24 27 30 33 35 37 37 38 37 39 40 40 42 44 47 46 48 57 62 65
9 12 18 15 11 11 12 12 15 14 13 11 9 10 10 13 17 20 24 28 33 36 37 36 35 37 39 41 42 44 45 48 47 44 56 60 63 69
8 16 17 15 11 11 13 13 12 9 6 5 7 9 12 15 18 21 27 32 35 36 32 34 35 40 40 42 44 44 48 50 44 49 59 62 70 71
15 17 15 12 11 9 7 6 5 4 4 4 7 10 13 17 21 25 31 35 35 37 38 35 39 38 38 42 42 46 50 45 40 56 59 68 72 72
16 14 13 13 10 8 5 3 3 1 3 6 10 13 16 20 27 30 33 36 38 41 46 41 36 40 40 41 46 51 44 32 55 56 61 70 74 72
14 13 11 8 6 4 2 1 3 5 8 11 15 19 22 25 29 32 35 39 40 41 43 51 44 38 41 48 49 43 26 52 54 55 66 72 73 71
10 8 6 4 0 3 4 6 10 11 14 17 21 25 28 30 32 34 37 41 46 46 46 47 42 55 51 44 40 28 50 52 54 61 66 70 68 77
5 3 3 4 5 8 10 13 15 19 21 24 27 31 32 36 38 40 41 41 45 48 37 43 51 52 42 32 33 58 54 58 61 61 64 64 70 75
5 5 7 8 11 13 16 19 22 26 28 30 31 34 36 38 40 41 42 42 44 47 51 49 57 56 50 63 68 62 59 66 67 63 60 65 67 68
10 11 14 15 17 20 23 27 30 32 32 34 36 37 39 41 44 45 46 45 45 47 46 51 59 54 57 64 70 71 72 72 73 64 66 71 68 65
17 18 21 23 25 28 31 34 36 37 37 38 39 41 44 47 48 49 47 49 50 48 46 46 50 51 58 65 76 79 77 78 61 69 69 72 77 73
23 25 27 29 30 34 36 36 38 38 42 45 44 46 49 52 53 54 53 54 57 51 47 43 48 52 60 63 70 79 72 70 70 67 73 73 74 71
31 34 36 37 39 41 41 38 40 45 48 48 49 52 56 58 59 57 56 56 58 56 53 50 50 57 61 66 73 69 58 60 64 69 75 81 74 75
37 38 38 37 37 40 42 46 46 45 47 50 53 56 59 60 61 57 57 59 60 55 56 54 55 59 62 67 58 50 58 61 67 73 75 79 86 74
43 40 38 39 41 42 45 47 47 47 50 53 56 56 58 61 62 61 57 58 59 56 54 52 52 52 55 64 65 60 60 70 74 74 74 77 85 82
44 41 40 41 42 45 47 50 51 52 53 56 57 57 57 59 59 55 51 52 54 55 54 51 51 47 49 54 68 71 67 69 68 77 81 81 79 78
40 39 41 43 45 48 50 52 54 54 53 54 54 53 52 52 53 49 49 50 50 52 55 52 50 53 57 62 67 71 65 61 63 71 78 79 80 82
37 38 40 43 46 48 50 51 52 50 51 51 50 49 48 48 49 49 48 50 50 51 53 55 55 57 57 59 65 69 73 68 59 59 59 55 58 56
37 39 40 42 44 46 47 48 48 46 45 46 46 45 45 46 45 47 48 50 50 51 51 54 53 54 54 57 62 67 69 69 72 67 55 55 53 57
Wind_Direction_850mb
224 232 238 244 256 245 249 234 226 216 228 231 233 240 244 244 249 264 266 268 277 280 282 290 294 296 295 295 296 298 298 302 308 312 312 311 310 314
234 232 237 242 230 231 219 214 221 239 240 232 233 234 231 251 260 257 264 272 276 280 288 290 292 291 293 295 296 293 294 301 307 310 308 306 308 313
220 207 219 219 179 211 207 232 235 238 245 244 231 234 246 251 249 258 264 272 282 288 292 293 293 294 293 291 292 293 294 303 307 308 309 305 312 317
168 150 136 154 154 198 159 245 270 256 247 246 245 235 233 238 247 261 275 283 287 292 296 297 294 290 290 291 291 289 295 303 310 308 301 312 311 313
133 128 172 187 205 240 245 208 233 246 240 237 227 217 224 241 264 277 283 288 293 298 299 297 293 289 289 289 287 290 297 304 305 306 308 312 313 315
154 167 178 162 168 196 210 195 190 193 196 202 221 222 247 259 272 281 293 301 305 304 299 294 290 286 288 288 289 292 299 306 303 301 312 312 313 315
159 131 131 140 155 162 162 169 167 159 168 195 233 246 261 279 291 306 305 304 304 304 302 297 293 291 289 288 291 292 300 304 298 307 313 313 314 317
138 143 155 155 163 161 149 146 148 164 200 232 261 282 297 307 308 308 310 313 318 311 303 298 297 294 289 290 290 294 300 297 297 312 313 314 315 318
142 146 148 158 161 160 166 182 195 240 290 308 301 305 308 311 314 315 317 312 310 310 306 305 300 295 291 291 295 298 298 291 314 315 315 315 317 319
144 151 156 156 158 165 182 259 308 305 307 309 311 313 314 317 318 316 315 313 313 311 308 304 309 299 294 298 299 297 285 311 313 316 317 317 319 318
148 157 158 173 327 341 319 316 308 307 308 311 314 316 319 316 318 316 315 317 315 314 311 301 306 307 304 304 299 287 308 309 314 318 319 319 319 319
165 203 244 285 296 305 307 305 305 309 313 315 316 318 321 320 319 320 319 315 311 315 311 303 307 312 316 315 302 305 308 314 317 320 319 318 322 321
250 268 274 277 287 296 299 302 306 306 311 314 316 319 319 317 317 317 313 311 305 301 301 302 303 306 303 303 306 312 316 318 318 319 319 319 323 324
280 279 280 281 287 291 295 297 300 304 308 314 316 317 316 316 315 314 313 310 306 304 299 298 296 302 300 299 301 311 319 319 320 321 324 321 324 325
291 292 292 291 291 292 293 295 300 306 309 311 311 313 314 315 314 313 312 309 308 306 300 294 294 299 295 296 301 309 316 318 318 320 321 323 326 329
286 285 284 282 284 285 290 296 302 305 306 305 308 311 312 310 312 310 312 310 307 308 305 303 302 299 297 299 300 305 314 306 315 319 320 324 325 330
297 292 289 288 287 287 291 297 298 300 299 302 306 309 309 311 309 308 308 306 303 307 306 306 304 301 301 301 300 307 311 314 316 319 320 321 327 330
303 297 293 293 289 286 287 287 293 294 297 300 302 303 304 304 304 305 307 304 304 307 307 308 307 306 306 305 309 309 315 315 320 322 321 319 323 332
304 301 295 292 293 293 293 293 294 293 295 297 297 301 304 304 306 308 307 304 304 307 307 307 308 308 306 306 310 310 315 320 320 319 321 322 320 327
299 295 295 295 294 292 293 295 297 300 302 304 304 305 305 302 302 301 303 302 303 303 304 308 308 306 304 303 305 313 318 319 322 321 320 320 321 324
290 293 296 298 298 298 299 301 302 303 301 300 300 299 296 296 297 300 303 301 301 303 305 309 306 307 305 305 305 313 316 319 320 319 321 322 325 325
298 298 296 296 295 296 296 295 296 299 301 300 299 300 301 301 302 303 303 302 304 305 307 308 309 310 310 309 310 312 315 320 318 317 319 325 323 308
301 302 303 303 303 303 303 304 304 303 300 299 300 302 302 303 304 304 305 305 306 307 309 308 308 310 310 310 312 314 318 322 323 324 326 330 327 324